| ↑↓ time |
↑↓ temp | ↑↓ dewp | ↑↓ baro | ↑↓ winddir |
↑↓ wind | ↑↓ gust | ↑↓ humid | ↑↓ rainrate | ↑↓ total rain | ↑↓ solar | ↑↓ uv |
| 1:29 pm | 78.6 | 54.3 | 29.80 | SSW | 8.7 | 17.9 | 43 | - | - | 773.3 | 5 |
| 1:34 pm | 77.7 | 53.6 | 29.79 | SSW | 7.4 | 15.9 | 44 | - | - | 774.5 | 5 |
| 1:39 pm | 79.0 | 54.9 | 29.79 | South | 7.6 | 11.2 | 44 | - | - | 756.5 | 5 |
| 1:44 pm | 78.3 | 54.3 | 29.79 | SSW | 6.0 | 10.1 | 44 | - | - | 757.9 | 5 |
| 1:49 pm | 78.8 | 54.5 | 29.79 | South | 5.4 | 13.2 | 43 | - | - | 751.4 | 5 |
| 1:54 pm | 78.4 | 54.0 | 29.78 | SSW | 9.0 | 17.0 | 43 | - | - | 760.4 | 5 |
| 1:59 pm | 78.6 | 54.9 | 29.78 | SSW | 9.4 | 19.5 | 44 | - | - | 471.4 | 3 |
| 2:04 pm | 78.4 | 54.1 | 29.78 | SW | 6.3 | 19.5 | 43 | - | - | 635.8 | 4 |
| 2:09 pm | 79.2 | 54.9 | 29.78 | SSW | 8.7 | 11.4 | 43 | - | - | 682 | 4 |
| 2:14 pm | 78.1 | 54.7 | 29.78 | SW | 9.4 | 13.7 | 45 | - | - | 664.1 | 4 |
| 2:19 pm | 78.4 | 54.9 | 29.78 | SW | 10.1 | 12.8 | 44 | - | - | 711.6 | 4 |
| 2:24 pm | 78.6 | 54.3 | 29.78 | SSW | 10.1 | 22.6 | 44 | - | - | 516.4 | 3 |
| 2:29 pm | 79.9 | 55.4 | 29.78 | South | 6.0 | 15.9 | 45 | - | - | 683.4 | 4 |
| 2:34 pm | 79.3 | 56.3 | 29.78 | SW | 4.9 | 12.5 | 46 | - | - | 711.6 | 4 |
| 2:39 pm | 78.3 | 55.2 | 29.78 | SSW | 5.6 | 18.6 | 46 | - | - | 743.7 | 5 |
| 2:44 pm | 78.3 | 55.8 | 29.78 | SW | 9.0 | 16.3 | 46 | - | - | 665.4 | 4 |
| 2:49 pm | 78.4 | 55.4 | 29.77 | SSW | 5.6 | 14.8 | 45 | - | - | 706.5 | 4 |
| 2:54 pm | 78.3 | 56.7 | 29.77 | SW | 6.5 | 15.0 | 48 | - | - | 676.9 | 4 |
| 2:59 pm | 79.2 | 56.5 | 29.77 | SW | 6.0 | 13.0 | 47 | - | - | 471.4 | 3 |
| 3:04 pm | 79.3 | 56.5 | 29.76 | SW | 6.3 | 12.3 | 46 | - | - | 652.5 | 4 |
| 3:09 pm | 79.2 | 55.4 | 29.76 | South | 4.5 | 12.3 | 44 | - | - | 658.9 | 4 |
| 3:14 pm | 79.5 | 55.6 | 29.76 | SSW | 6.3 | 16.1 | 45 | - | - | 634.6 | 4 |
| 3:19 pm | 79.0 | 55.9 | 29.76 | South | 15.2 | 15.2 | 45 | - | - | 583.2 | 4 |
| 3:24 pm | 79.7 | 55.9 | 29.76 | SW | 6.5 | 14.1 | 44 | - | - | 605 | 4 |
| 3:29 pm | 79.7 | 55.9 | 29.76 | SW | 6.0 | 10.5 | 44 | - | - | 551 | 3 |
| 3:34 pm | 79.0 | 55.9 | 29.76 | SW | 5.4 | 12.5 | 45 | - | - | 530.5 | 3 |
| 3:39 pm | 79.5 | 56.3 | 29.76 | SW | 7.2 | 12.3 | 45 | - | - | 539.5 | 3 |
| 3:44 pm | 80.1 | 56.5 | 29.76 | South | 11.6 | 15.4 | 46 | - | - | 558.7 | 3 |
| 3:49 pm | 78.6 | 55.4 | 29.75 | South | 7.6 | 13.7 | 45 | - | - | 563.9 | 3 |
| 3:54 pm | 78.8 | 55.6 | 29.75 | South | 6.0 | 13.2 | 45 | - | - | 551 | 3 |
| 3:59 pm | 78.3 | 55.2 | 29.75 | SSW | 9.2 | 16.3 | 45 | - | - | 422.6 | 2 |
| 4:04 pm | 77.9 | 54.9 | 29.75 | SW | 6.7 | 14.1 | 45 | - | - | 434.2 | 3 |
| 4:09 pm | 78.6 | 55.6 | 29.75 | SW | 4.3 | 13.0 | 45 | - | - | 400.8 | 2 |
| 4:14 pm | 78.4 | 55.9 | 29.75 | SW | 5.1 | 14.3 | 46 | - | - | 452.1 | 3 |
| 4:19 pm | 78.3 | 56.5 | 29.75 | SSE | 5.4 | 10.7 | 47 | - | - | 447 | 3 |
| 4:24 pm | 77.9 | 56.7 | 29.75 | WSW | 7.4 | 11.2 | 48 | - | - | 435.4 | 3 |
| 4:29 pm | 77.9 | 56.5 | 29.75 | SSW | 6.5 | 11.9 | 48 | - | - | 418.8 | 2 |
| 4:34 pm | 77.9 | 56.1 | 29.75 | SE | 6.7 | 9.0 | 47 | - | - | 444.5 | 3 |
| 4:39 pm | 78.3 | 57.0 | 29.75 | SE | 6.3 | 10.3 | 48 | - | - | 429 | 3 |
| 4:44 pm | 78.3 | 56.7 | 29.75 | WSW | 3.8 | 8.1 | 48 | - | - | 432.9 | 3 |
| 4:49 pm | 78.4 | 56.3 | 29.74 | SE | 4.7 | 10.5 | 47 | - | - | 434.2 | 3 |
| 4:54 pm | 78.1 | 56.3 | 29.73 | East | 8.1 | 10.5 | 48 | - | - | 422.6 | 2 |
| 4:59 pm | 77.4 | 56.7 | 29.74 | WSW | 2.7 | 10.3 | 49 | - | - | 390.5 | 2 |
| 5:04 pm | 78.1 | 56.8 | 29.73 | SE | 2.9 | 8.5 | 48 | - | - | 375.1 | 2 |
| 5:09 pm | 77.7 | 56.3 | 29.74 | ENE | 10.7 | 10.7 | 49 | - | - | 337.8 | 2 |
| 5:14 pm | 76.8 | 56.3 | 29.74 | SSW | 6.0 | 9.6 | 49 | - | - | 304.4 | 2 |
| 5:19 pm | 76.1 | 56.1 | 29.74 | East | 5.8 | 14.8 | 50 | - | - | 317.2 | 2 |
| 5:24 pm | 76.3 | 56.3 | 29.75 | ESE | 4.7 | 10.3 | 50 | - | - | 307 | 2 |
| 5:29 pm | 76.8 | 56.8 | 29.75 | SSE | 5.6 | 6.3 | 50 | - | - | 283.8 | 1 |
| 5:34 pm | 77.0 | 56.5 | 29.75 | WSW | 2.0 | 6.0 | 50 | - | - | 278.7 | 1 |
| 5:39 pm | 76.8 | 56.5 | 29.75 | SSE | 3.4 | 8.1 | 50 | - | - | 258.1 | 1 |
| 5:44 pm | 76.1 | 56.7 | 29.75 | SE | 8.3 | 8.3 | 51 | - | - | 233.8 | 1 |
| 5:49 pm | 76.1 | 56.8 | 29.75 | ESE | 4.5 | 7.4 | 52 | - | - | 218.4 | 1 |
| 5:54 pm | 75.2 | 57.0 | 29.75 | ENE | 3.6 | 10.7 | 54 | - | - | 132.3 | 0 |
| 5:59 pm | 74.1 | 56.8 | 29.75 | East | 1.8 | 4.0 | 55 | - | - | 152.8 | 1 |
| 6:04 pm | 74.7 | 57.0 | 29.75 | ENE | 3.4 | 6.9 | 54 | - | - | 170.8 | 1 |
| 6:09 pm | 74.7 | 56.5 | 29.75 | East | 6.3 | 6.3 | 54 | - | - | 125.9 | 0 |
| 6:14 pm | 74.3 | 56.7 | 29.74 | ESE | 2.7 | 7.8 | 55 | - | - | 98.9 | 0 |
| 6:19 pm | 73.8 | 56.7 | 29.75 | ENE | 4.0 | 6.3 | 56 | - | - | 73.2 | 0 |
| 6:24 pm | 73.0 | 56.3 | 29.75 | NE | 3.6 | 5.1 | 56 | - | - | 93.7 | 0 |
| 6:29 pm | 72.9 | 56.3 | 29.75 | South | 4.7 | 6.3 | 57 | - | - | 68 | 0 |
| 6:34 pm | 72.1 | 56.3 | 29.75 | ESE | 5.8 | 8.3 | 58 | - | - | 50.1 | 0 |
| 6:39 pm | 71.8 | 55.8 | 29.76 | SSE | 3.8 | 8.7 | 57 | - | - | 48.8 | 0 |
| 6:44 pm | 71.6 | 56.1 | 29.75 | East | 4.3 | 8.7 | 58 | - | - | 42.3 | 0 |
| 6:49 pm | 71.1 | 55.6 | 29.75 | ESE | 3.6 | 7.4 | 58 | - | - | 38.5 | 0 |
| 6:54 pm | 70.9 | 55.4 | 29.75 | SSE | 2.9 | 4.5 | 58 | - | - | 37.2 | 0 |
| 6:59 pm | 70.7 | 55.8 | 29.75 | SE | 2.7 | 7.4 | 59 | - | - | 26.9 | 0 |
| 7:04 pm | 70.5 | 55.6 | 29.75 | East | 3.8 | 7.6 | 59 | - | - | 25.7 | 0 |
| 7:09 pm | 70.3 | 55.4 | 29.76 | ESE | 4.3 | 6.7 | 59 | - | - | 23.1 | 0 |
| 7:14 pm | 70.2 | 55.4 | 29.76 | ESE | 3.1 | 8.3 | 60 | - | - | 12.9 | 0 |
| 7:19 pm | 69.8 | 55.4 | 29.76 | East | 1.6 | 5.4 | 60 | - | - | 7.7 | 0 |
| 7:24 pm | 69.6 | 55.2 | 29.77 | SSE | 5.6 | 5.8 | 60 | - | - | 7.7 | 0 |
| 7:29 pm | 69.6 | 55.4 | 29.77 | ENE | 3.6 | 5.6 | 61 | - | - | 9 | 0 |
| 7:34 pm | 69.4 | 55.0 | 29.77 | East | 1.6 | 6.0 | 61 | - | - | 6.4 | 0 |
| 7:39 pm | 68.9 | 55.0 | 29.77 | WNW | 1.3 | 5.4 | 62 | - | - | 5.1 | 0 |
| 7:44 pm | 68.7 | 55.0 | 29.77 | SSE | 2.9 | 7.2 | 62 | - | - | 3.8 | 0 |
| 7:49 pm | 68.4 | 54.9 | 29.77 | East | 1.6 | 4.0 | 62 | - | - | 1.2 | 0 |
| 7:54 pm | 68.2 | 55.2 | 29.78 | SSE | 2.0 | 2.9 | 64 | - | - | 1.2 | 0 |
| 7:59 pm | 67.8 | 54.9 | 29.77 | SSW | 1.8 | 3.6 | 64 | - | - | 0 | 0 |
| 8:04 pm | 67.5 | 54.5 | 29.78 | SSW | 2.2 | 4.7 | 63 | - | - | 0 | 0 |
| 8:09 pm | 67.5 | 54.5 | 29.78 | South | 1.8 | 4.7 | 63 | - | - | 0 | 0 |
| 8:14 pm | 67.5 | 54.7 | 29.78 | WNW | - | 2.2 | 64 | - | - | 0 | 0 |
| 8:19 pm | 67.3 | 54.5 | 29.78 | NNE | 1.8 | 2.5 | 64 | - | - | 0 | 0 |
| 8:24 pm | 67.5 | 54.5 | 29.78 | SSW | 3.4 | 3.8 | 64 | - | - | 0 | 0 |
| 8:29 pm | 67.3 | 54.3 | 29.78 | SW | 2.7 | 3.8 | 64 | - | - | 0 | 0 |
| 8:34 pm | 66.9 | 54.3 | 29.79 | SW | 2.0 | 2.9 | 64 | - | - | 0 | 0 |
| 8:39 pm | 67.3 | 54.3 | 29.78 | SW | 2.0 | 4.3 | 63 | - | - | 0 | 0 |
| 8:44 pm | 67.5 | 54.3 | 29.79 | WSW | 2.2 | 3.8 | 64 | - | - | 0 | 0 |
| 8:49 pm | 67.5 | 54.5 | 29.79 | SW | 2.0 | 2.7 | 64 | - | - | 0 | 0 |
| 8:54 pm | 67.1 | 54.5 | 29.79 | SW | 2.0 | 3.6 | 64 | - | - | 0 | 0 |
| 8:59 pm | 67.3 | 54.1 | 29.79 | SW | 1.6 | 5.6 | 64 | - | - | 0 | 0 |
| 9:04 pm | 67.5 | 54.1 | 29.80 | SSW | 2.7 | 5.6 | 64 | - | - | 0 | 0 |
| 9:09 pm | 67.5 | 53.8 | 29.79 | SSW | 2.9 | 4.5 | 62 | - | - | 0 | 0 |
| 9:14 pm | 67.5 | 54.1 | 29.80 | West | 1.6 | 2.9 | 64 | - | - | 0 | 0 |
| 9:19 pm | 67.1 | 54.0 | 29.80 | SSW | - | 2.0 | 63 | - | - | 0 | 0 |
| 9:24 pm | 66.9 | 54.0 | 29.80 | WSW | - | 2.0 | 63 | - | - | 0 | 0 |
| 9:29 pm | 66.9 | 53.8 | 29.80 | WSW | 1.3 | 1.8 | 63 | - | - | 0 | 0 |
| 9:34 pm | 66.7 | 54.1 | 29.81 | ESE | 3.1 | 3.8 | 64 | - | - | 0 | 0 |
| 9:39 pm | 66.7 | 54.1 | 29.81 | SSE | 5.8 | 7.4 | 64 | - | - | 0 | 0 |
| 9:44 pm | 66.7 | 54.5 | 29.81 | SSE | 4.3 | 8.5 | 65 | - | - | 0 | 0 |
| 9:49 pm | 66.2 | 54.1 | 29.81 | SE | 2.9 | 3.1 | 65 | - | - | 0 | 0 |
| 9:54 pm | 66.4 | 54.1 | 29.81 | SW | 1.8 | 3.1 | 65 | - | - | 0 | 0 |
| 9:59 pm | 66.6 | 54.3 | 29.81 | SSW | 3.8 | 6.9 | 65 | - | - | 0 | 0 |
| 10:04 pm | 66.2 | 53.8 | 29.81 | ESE | 2.7 | 3.4 | 65 | - | - | 0 | 0 |
| 10:09 pm | 66.0 | 54.0 | 29.81 | NNW | 1.1 | 2.5 | 65 | - | - | 0 | 0 |
| 10:14 pm | 65.8 | 54.0 | 29.82 | SSE | 2.0 | 4.0 | 66 | - | - | 0 | 0 |
| 10:19 pm | 65.5 | 54.0 | 29.81 | SW | 1.8 | 4.5 | 67 | - | - | 0 | 0 |
| 10:24 pm | 65.5 | 54.3 | 29.81 | South | 3.1 | 5.6 | 67 | - | - | 0 | 0 |
| 10:29 pm | 65.5 | 54.1 | 29.81 | South | 2.2 | 5.6 | 67 | - | - | 0 | 0 |
| 10:34 pm | 65.5 | 54.1 | 29.81 | South | 2.7 | 4.5 | 67 | - | - | 0 | 0 |
| 10:39 pm | 65.5 | 54.1 | 29.81 | SW | 4.7 | 5.6 | 67 | - | - | 0 | 0 |
| 10:44 pm | 65.5 | 54.3 | 29.81 | South | 3.6 | 4.5 | 67 | - | - | 0 | 0 |
| 10:49 pm | 65.7 | 54.1 | 29.81 | SW | 4.3 | 13.0 | 67 | - | - | 0 | 0 |
| 10:54 pm | 65.8 | 54.1 | 29.81 | SW | 3.4 | 15.2 | 66 | - | - | 0 | 0 |
| 10:59 pm | 66.2 | 54.3 | 29.82 | SW | 7.2 | 15.2 | 66 | - | - | 0 | 0 |
| 11:04 pm | 65.8 | 54.1 | 29.81 | WSW | 5.8 | 8.1 | 66 | - | - | 0 | 0 |
| 11:09 pm | 66.2 | 54.3 | 29.81 | SSW | 7.4 | 14.1 | 66 | - | - | 0 | 0 |
| 11:14 pm | 66.2 | 54.7 | 29.81 | SW | 9.0 | 10.1 | 67 | - | - | 0 | 0 |
| 11:19 pm | 66.2 | 54.7 | 29.81 | SW | 4.7 | 13.7 | 67 | - | - | 0 | 0 |
| 11:24 pm | 66.0 | 54.7 | 29.81 | SSW | 7.8 | 11.0 | 67 | - | - | 0 | 0 |
| 11:29 pm | 65.8 | 54.7 | 29.81 | SSW | 2.9 | 7.8 | 67 | - | - | 0 | 0 |
| 11:34 pm | 66.0 | 54.9 | 29.81 | SSW | 5.1 | 9.4 | 67 | - | - | 0 | 0 |
| 11:39 pm | 66.2 | 55.0 | 29.81 | South | 5.6 | 9.8 | 67 | - | - | 0 | 0 |
| 11:44 pm | 66.2 | 55.0 | 29.81 | SSW | 10.5 | 13.7 | 67 | - | - | 0 | 0 |
| 11:49 pm | 66.4 | 55.2 | 29.81 | South | 5.1 | 12.5 | 67 | - | - | 0 | 0 |
| 11:54 pm | 66.0 | 55.0 | 29.81 | SW | 4.5 | 9.2 | 68 | - | - | 0 | 0 |
| 11:59 pm | 65.7 | 54.9 | 29.81 | SSW | 4.0 | 9.0 | 68 | - | - | 0 | 0 |
| 12:04 am | 65.8 | 55.0 | 29.81 | South | 13.4 | 13.9 | 68 | - | - | 0 | 0 |
| 12:09 am | 65.5 | 54.9 | 29.82 | South | 9.2 | 12.8 | 69 | - | - | 0 | 0 |
| 12:14 am | 65.7 | 54.9 | 29.81 | SSW | 6.9 | 11.9 | 68 | - | - | 0 | 0 |
| 12:19 am | 65.3 | 54.9 | 29.82 | SSW | 6.3 | 13.2 | 69 | - | - | 0 | 0 |
| 12:24 am | 65.3 | 54.9 | 29.81 | SSW | 8.5 | 13.2 | 69 | - | - | 0 | 0 |
| 12:29 am | 65.5 | 54.7 | 29.81 | SSW | 5.6 | 15.9 | 69 | - | - | 0 | 0 |
| 12:34 am | 65.1 | 54.7 | 29.81 | SSW | 6.5 | 10.3 | 69 | - | - | 0 | 0 |
| 12:39 am | 65.3 | 54.9 | 29.82 | SSW | 7.2 | 13.0 | 69 | - | - | 0 | 0 |
| 12:44 am | 65.3 | 54.7 | 29.82 | SSW | 6.7 | 12.3 | 69 | - | - | 0 | 0 |
| 12:49 am | 65.1 | 54.7 | 29.82 | WSW | 5.6 | 9.8 | 69 | - | - | 0 | 0 |
| 12:54 am | 64.8 | 54.9 | 29.82 | SSW | 3.4 | 13.4 | 70 | - | - | 0 | 0 |
| 12:59 am | 64.6 | 54.7 | 29.82 | SSW | 6.3 | 13.4 | 70 | - | - | 0 | 0 |
| 1:04 am | 64.4 | 54.7 | 29.82 | SSW | 3.1 | 11.9 | 71 | - | - | 0 | 0 |
| 1:09 am | 64.0 | 54.5 | 29.82 | SW | 4.5 | 5.6 | 71 | - | - | 0 | 0 |
| 1:14 am | 64.0 | 54.5 | 29.81 | WSW | 6.0 | 9.2 | 71 | - | - | 0 | 0 |
| 1:19 am | 64.2 | 54.7 | 29.81 | SSW | 5.8 | 7.8 | 71 | - | - | 0 | 0 |
| 1:24 am | 63.9 | 54.5 | 29.81 | SSW | 5.8 | 12.3 | 72 | - | - | 0 | 0 |
| 1:29 am | 63.7 | 54.5 | 29.82 | SSW | 3.4 | 9.6 | 72 | - | - | 0 | 0 |
| 1:34 am | 63.7 | 54.5 | 29.81 | SW | 4.7 | 11.9 | 72 | - | - | 0 | 0 |
| 1:39 am | 63.5 | 54.3 | 29.81 | SSW | 6.3 | 14.1 | 72 | - | - | 0 | 0 |
| 1:44 am | 63.5 | 54.3 | 29.81 | SSW | 8.3 | 12.8 | 73 | - | - | 0 | 0 |
| 1:49 am | 63.1 | 54.5 | 29.81 | SW | 6.0 | 12.3 | 74 | - | - | 0 | 0 |
| 1:54 am | 63.0 | 54.5 | 29.81 | SSW | 5.4 | 9.2 | 74 | - | - | 0 | 0 |
| 1:59 am | 63.0 | 54.5 | 29.80 | SSW | 8.1 | 9.6 | 74 | - | - | 0 | 0 |
| 2:04 am | 62.6 | 54.3 | 29.81 | SSW | 2.9 | 9.6 | 74 | - | - | 0 | 0 |
| 2:09 am | 62.4 | 54.5 | 29.80 | SSW | 3.1 | 9.6 | 75 | - | - | 0 | 0 |
| 2:14 am | 62.4 | 54.5 | 29.81 | SW | 4.3 | 13.0 | 75 | - | - | 0 | 0 |
| 2:19 am | 62.2 | 54.3 | 29.81 | SSW | 3.6 | 4.5 | 76 | - | - | 0 | 0 |
| 2:24 am | 62.1 | 54.5 | 29.81 | SSW | 6.0 | 9.0 | 76 | - | - | 0 | 0 |
| 2:29 am | 61.9 | 54.3 | 29.81 | SSW | 3.1 | 7.4 | 76 | - | - | 0 | 0 |
| 2:34 am | 62.1 | 54.5 | 29.81 | SSW | 4.0 | 8.5 | 76 | - | - | 0 | 0 |
| 2:39 am | 61.7 | 54.5 | 29.80 | SSW | 3.8 | 5.4 | 77 | - | - | 0 | 0 |
| 2:44 am | 61.7 | 54.5 | 29.81 | South | 7.4 | 12.5 | 77 | - | - | 0 | 0 |
| 2:49 am | 61.3 | 54.3 | 29.81 | SSW | 3.6 | 9.6 | 78 | - | - | 0 | 0 |
| 2:54 am | 61.2 | 54.3 | 29.81 | SSW | 3.8 | 8.7 | 78 | - | - | 0 | 0 |
| 2:59 am | 61.2 | 54.5 | 29.81 | SW | 4.7 | 9.4 | 79 | - | - | 0 | 0 |
| 3:04 am | 61.0 | 54.5 | 29.81 | SSW | 4.9 | 5.4 | 79 | - | - | 0 | 0 |
| 3:09 am | 61.2 | 54.7 | 29.81 | SSW | 4.9 | 5.8 | 79 | - | - | 0 | 0 |
| 3:14 am | 60.8 | 54.5 | 29.81 | SSW | 1.8 | 5.1 | 80 | - | - | 0 | 0 |
| 3:19 am | 60.4 | 54.3 | 29.81 | SSW | 1.8 | 5.6 | 80 | - | - | 0 | 0 |
| 3:24 am | 60.3 | 54.5 | 29.81 | South | 2.5 | 5.4 | 81 | - | - | 0 | 0 |
| 3:29 am | 60.1 | 54.3 | 29.81 | SSW | 2.5 | 5.4 | 81 | - | - | 0 | 0 |
| 3:34 am | 60.3 | 54.5 | 29.80 | SSE | 2.5 | 4.5 | 81 | - | - | 0 | 0 |
| 3:39 am | 59.7 | 54.3 | 29.80 | SE | 2.0 | 3.1 | 82 | - | - | 0 | 0 |
| 3:44 am | 59.5 | 54.1 | 29.80 | East | 1.3 | 2.0 | 82 | - | - | 0 | 0 |
| 3:49 am | 59.4 | 54.3 | 29.81 | SSE | 1.6 | 4.0 | 83 | - | - | 0 | 0 |
| 3:54 am | 59.2 | 54.1 | 29.81 | ESE | 2.0 | 4.5 | 83 | - | - | 0 | 0 |
| 3:59 am | 58.8 | 53.8 | 29.81 | ENE | - | 1.8 | 83 | - | - | 0 | 0 |
| 4:04 am | 58.5 | 53.6 | 29.81 | North | - | 1.6 | 84 | - | - | 0 | 0 |
| 4:09 am | 58.3 | 53.4 | 29.81 | NE | 2.5 | 2.9 | 84 | - | - | 0 | 0 |
| 4:14 am | 58.1 | 53.2 | 29.81 | NE | 2.0 | 2.9 | 85 | - | - | 0 | 0 |
| 4:19 am | 57.6 | 53.1 | 29.81 | NE | 2.5 | 2.9 | 85 | - | - | 0 | 0 |
| 4:24 am | 57.2 | 52.9 | 29.81 | NNE | 2.7 | 4.0 | 86 | - | - | 0 | 0 |
| 4:29 am | 56.8 | 52.7 | 29.81 | NNE | 2.2 | 3.8 | 86 | - | - | 0 | 0 |
| 4:34 am | 56.7 | 52.5 | 29.81 | NE | 1.8 | 3.8 | 86 | - | - | 0 | 0 |
| 4:39 am | 55.9 | 52.2 | 29.81 | NE | 2.5 | 2.5 | 87 | - | - | 0 | 0 |
| 4:44 am | 55.9 | 52.2 | 29.81 | NE | 2.5 | 3.1 | 88 | - | - | 0 | 0 |
| 4:49 am | 55.6 | 52.2 | 29.81 | NE | 2.2 | 2.9 | 88 | - | - | 0 | 0 |
| 4:54 am | 55.8 | 52.3 | 29.81 | NNE | 2.0 | 2.2 | 88 | - | - | 0 | 0 |
| 4:59 am | 55.9 | 52.5 | 29.81 | NE | 1.8 | 3.8 | 88 | - | - | 0 | 0 |
| 5:04 am | 55.8 | 52.3 | 29.81 | NNE | 1.6 | 3.8 | 88 | - | - | 0 | 0 |
| 5:09 am | 55.8 | 52.3 | 29.80 | NE | 1.8 | 2.2 | 88 | - | - | 0 | 0 |
| 5:14 am | 55.4 | 52.0 | 29.80 | NNE | 3.4 | 3.4 | 89 | - | - | 0 | 0 |
| 5:19 am | 55.8 | 52.5 | 29.80 | NE | 2.7 | 3.1 | 89 | - | - | 0 | 0 |
| 5:24 am | 55.8 | 52.5 | 29.81 | ENE | - | 1.8 | 89 | - | - | 0 | 0 |
| 5:29 am | 56.1 | 52.9 | 29.80 | NNE | 1.8 | 2.9 | 89 | - | - | 0 | 0 |
| 5:34 am | 55.9 | 52.7 | 29.80 | ENE | 2.0 | 2.0 | 89 | - | - | 0 | 0 |
| 5:39 am | 56.3 | 53.1 | 29.80 | NE | 1.8 | 3.4 | 89 | - | - | 0 | 0 |
| 5:44 am | 56.1 | 52.9 | 29.80 | East | - | 2.0 | 89 | - | - | 0 | 0 |
| 5:49 am | 56.3 | 53.1 | 29.81 | East | 3.8 | 4.9 | 89 | - | - | 0 | 0 |
| 5:54 am | 56.7 | 53.4 | 29.81 | NNE | 1.8 | 4.9 | 89 | - | - | 1.2 | 0 |
| 5:59 am | 56.8 | 53.6 | 29.81 | ESE | 2.5 | 4.7 | 89 | - | - | 3.8 | 0 |
| 6:04 am | 57.2 | 54.0 | 29.81 | SE | 2.0 | 2.7 | 89 | - | - | 9 | 0 |
| 6:09 am | 57.4 | 54.0 | 29.81 | NE | 2.5 | 3.4 | 88 | - | - | 14.1 | 0 |
| 6:14 am | 57.4 | 54.0 | 29.81 | ENE | 2.0 | 2.5 | 88 | - | - | 12.9 | 0 |
| 6:19 am | 57.7 | 54.3 | 29.81 | ENE | 2.0 | 3.1 | 88 | - | - | 11.5 | 0 |
| 6:24 am | 57.9 | 54.5 | 29.81 | SSE | 1.6 | 4.5 | 88 | - | - | 15.4 | 0 |
| 6:29 am | 58.1 | 54.5 | 29.81 | ESE | - | 2.2 | 88 | - | - | 24.4 | 0 |
| 6:34 am | 58.5 | 54.7 | 29.81 | SE | 2.0 | 3.6 | 87 | - | - | 32.1 | 0 |
| 6:39 am | 59.2 | 55.0 | 29.81 | South | 4.0 | 5.4 | 87 | - | - | 28.3 | 0 |
| 6:44 am | 59.4 | 55.2 | 29.81 | South | 1.1 | 6.3 | 86 | - | - | 24.4 | 0 |
| 6:49 am | 59.0 | 54.9 | 29.81 | South | - | 3.8 | 86 | - | - | 37.2 | 0 |
| 6:54 am | 59.0 | 54.9 | 29.82 | South | 3.1 | 5.6 | 86 | - | - | 43.7 | 0 |
| 6:59 am | 59.4 | 55.2 | 29.82 | South | 4.5 | 6.5 | 86 | - | - | 46.2 | 0 |
| 7:04 am | 59.7 | 55.2 | 29.82 | SSW | 3.1 | 6.7 | 85 | - | - | 38.5 | 0 |
| 7:09 am | 59.9 | 55.4 | 29.82 | South | 4.0 | 6.9 | 85 | - | - | 23.1 | 0 |
| 7:14 am | 59.5 | 55.0 | 29.82 | SSE | 1.8 | 6.9 | 85 | - | - | 51.4 | 0 |
| 7:19 am | 59.9 | 55.4 | 29.81 | SSE | 3.8 | 5.6 | 85 | - | - | 60.3 | 0 |
| 7:24 am | 59.9 | 55.4 | 29.81 | South | 2.9 | 5.6 | 85 | - | - | 61.7 | 0 |
| 7:29 am | 60.1 | 55.6 | 29.81 | South | 2.5 | 3.8 | 85 | - | - | 80.9 | 0 |
| 7:34 am | 60.3 | 55.8 | 29.81 | ESE | 4.5 | 4.7 | 85 | - | - | 88.6 | 0 |
| 7:39 am | 60.4 | 55.6 | 29.81 | ESE | 2.5 | 4.5 | 84 | - | - | 89.9 | 0 |
| 7:44 am | 60.8 | 55.9 | 29.82 | South | 7.6 | 7.6 | 84 | - | - | 87.3 | 0 |
| 7:49 am | 61.0 | 56.1 | 29.81 | SSW | 5.4 | 7.6 | 84 | - | - | 91.2 | 0 |
| 7:54 am | 61.2 | 55.9 | 29.81 | SSW | 5.4 | 8.7 | 83 | - | - | 114.3 | 0 |
| 7:59 am | 61.3 | 56.1 | 29.82 | SSW | 5.8 | 8.1 | 84 | - | - | 122 | 0 |
| 8:04 am | 61.3 | 56.1 | 29.82 | SSW | 3.8 | 8.3 | 83 | - | - | 82.2 | 0 |
| 8:09 am | 61.5 | 56.3 | 29.82 | South | 5.6 | 15.7 | 83 | - | - | 69.4 | 0 |
| 8:14 am | 61.3 | 56.5 | 29.82 | SW | 2.9 | 6.3 | 84 | - | - | 65.5 | 0 |
| 8:19 am | 61.3 | 56.1 | 29.82 | SW | 4.0 | 8.3 | 84 | - | - | 60.3 | 0 |
| 8:24 am | 61.2 | 55.9 | 29.82 | SSW | 2.5 | 9.6 | 83 | - | - | 65.5 | 0 |
| 8:29 am | 61.2 | 55.9 | 29.81 | SSW | 5.8 | 15.7 | 83 | - | - | 66.8 | 0 |
| 8:34 am | 61.2 | 55.9 | 29.81 | South | 4.0 | 8.5 | 83 | - | - | 77.1 | 0 |
| 8:39 am | 61.3 | 56.1 | 29.81 | SSW | 3.8 | 5.8 | 83 | - | - | 82.2 | 0 |
| 8:44 am | 61.3 | 56.3 | 29.81 | WSW | 7.6 | 8.5 | 84 | - | - | 104 | 0 |
| 8:49 am | 61.5 | 56.3 | 29.81 | SW | 8.3 | 12.1 | 83 | - | - | 137.4 | 0 |
| 8:54 am | 61.5 | 56.3 | 29.81 | SW | 3.6 | 12.1 | 83 | - | - | 138.7 | 0 |
| 8:59 am | 61.7 | 56.5 | 29.81 | SSE | 5.1 | 9.2 | 83 | - | - | 122 | 0 |
| 9:04 am | 61.7 | 56.5 | 29.80 | South | 5.8 | 8.7 | 83 | - | - | 172.1 | 1 |
| 9:09 am | 61.9 | 56.5 | 29.80 | SSW | 4.0 | 8.3 | 83 | - | - | 191.4 | 1 |
| 9:14 am | 62.1 | 56.7 | 29.80 | South | 5.6 | 13.4 | 83 | - | - | 167 | 1 |
| 9:19 am | 62.6 | 57.0 | 29.80 | SW | 2.5 | 5.1 | 83 | - | - | 247.9 | 1 |
| 9:24 am | 63.0 | 57.4 | 29.81 | SSW | 2.9 | 6.0 | 82 | - | - | 147.7 | 0 |
| 9:29 am | 62.6 | 57.0 | 29.81 | South | 5.4 | 9.6 | 82 | - | - | 91.2 | 0 |
| 9:34 am | 62.4 | 56.8 | 29.81 | SW | 5.1 | 5.1 | 82 | - | - | 134.8 | 0 |
| 9:39 am | 63.0 | 57.0 | 29.81 | South | 5.8 | 13.0 | 82 | - | - | 149 | 1 |
| 9:44 am | 63.0 | 57.0 | 29.80 | SW | 4.3 | 12.3 | 81 | - | - | 146.4 | 0 |
| 9:49 am | 63.0 | 57.0 | 29.81 | South | 4.7 | 10.3 | 81 | - | - | 159.3 | 1 |
| 9:54 am | 63.5 | 57.4 | 29.81 | WSW | 5.1 | 8.5 | 81 | - | - | 150.3 | 1 |
| 9:59 am | 63.3 | 57.4 | 29.81 | SW | 2.7 | 7.6 | 81 | - | - | 114.3 | 0 |
| 10:04 am | 63.3 | 57.4 | 29.81 | South | 4.0 | 4.9 | 81 | - | - | 123.3 | 0 |
| 10:09 am | 63.7 | 57.4 | 29.81 | SSW | 3.4 | 6.5 | 80 | - | - | 128.4 | 0 |
| 10:14 am | 63.9 | 57.6 | 29.81 | SSE | 5.1 | 13.0 | 80 | - | - | 133.6 | 0 |
| 10:19 am | 63.9 | 57.6 | 29.82 | SW | 9.0 | 10.5 | 80 | - | - | 155.4 | 1 |
| 10:24 am | 63.9 | 57.6 | 29.81 | SSW | 9.0 | 9.2 | 80 | - | - | 174.7 | 1 |
| 10:29 am | 64.0 | 57.7 | 29.81 | South | 5.6 | 10.3 | 80 | - | - | 192.7 | 1 |
| 10:34 am | 64.0 | 57.4 | 29.81 | SSW | 5.8 | 9.2 | 79 | - | - | 195.3 | 1 |
| 10:39 am | 64.2 | 57.9 | 29.80 | SSW | 6.0 | 9.2 | 80 | - | - | 179.8 | 1 |
| 10:44 am | 64.2 | 57.6 | 29.81 | SSW | 5.1 | 13.0 | 79 | - | - | 205.5 | 1 |
| 10:49 am | 64.6 | 57.7 | 29.81 | SSE | 2.9 | 7.2 | 79 | - | - | 222.2 | 1 |
| 10:54 am | 64.9 | 58.3 | 29.81 | SSW | 4.7 | 7.6 | 79 | - | - | 203 | 1 |
| 10:59 am | 64.8 | 58.1 | 29.81 | SW | 8.7 | 9.8 | 79 | - | - | 181.1 | 1 |
| 11:04 am | 64.8 | 57.9 | 29.81 | SSW | 2.9 | 9.8 | 79 | - | - | 208.1 | 1 |
| 11:09 am | 65.1 | 58.5 | 29.81 | SSW | 2.2 | 6.3 | 79 | - | - | 209.3 | 1 |
| 11:14 am | 65.3 | 58.3 | 29.81 | SSW | 2.9 | 7.8 | 78 | - | - | 226.1 | 1 |
| 11:19 am | 65.3 | 58.3 | 29.81 | SSW | 3.1 | 7.6 | 78 | - | - | 161.9 | 1 |
| 11:24 am | 65.5 | 58.5 | 29.81 | SW | 6.0 | 6.0 | 78 | - | - | 122 | 0 |
| 11:29 am | 65.3 | 58.3 | 29.81 | SSE | 4.5 | 5.1 | 78 | - | - | 129.7 | 0 |
| 11:34 am | 65.3 | 58.3 | 29.81 | SW | 5.8 | 8.7 | 78 | - | - | 110.5 | 0 |
| 11:39 am | 65.1 | 58.5 | 29.81 | SW | 2.9 | 8.1 | 79 | - | - | 136.2 | 0 |
| 11:44 am | 65.1 | 58.6 | 29.81 | SSE | 2.7 | 8.1 | 80 | - | - | 133.6 | 0 |
| 11:49 am | 64.9 | 59.0 | 29.80 | SW | 4.5 | 6.9 | 81 | - | - | 160.5 | 1 |
| 11:54 am | 64.4 | 58.5 | 29.79 | South | 2.7 | 6.9 | 81 | - | - | 156.7 | 1 |
| 11:59 am | 64.8 | 59.2 | 29.80 | SW | 1.3 | 3.4 | 82 | - | - | 106.6 | 0 |
| 12:04 pm | 64.4 | 58.5 | 29.80 | SSW | 3.1 | 6.9 | 81 | - | - | 116.8 | 0 |
| 12:09 pm | 64.6 | 58.8 | 29.79 | SSW | 2.9 | 4.7 | 82 | - | - | 86 | 0 |
| 12:14 pm | 64.4 | 58.8 | 29.79 | North | - | 4.7 | 82 | - | - | 46.2 | 0 |
| 12:19 pm | 64.2 | 58.6 | 29.79 | SE | 2.5 | 4.7 | 82 | - | - | 44.9 | 0 |
| 12:24 pm | 63.9 | 58.6 | 29.80 | SSE | 1.8 | 4.3 | 83 | - | - | 54 | 0 |
| 12:29 pm | 63.3 | 58.5 | 29.80 | SSE | 5.1 | 5.1 | 84 | 0.02 | - | 48.8 | 0 |
| 12:34 pm | 62.6 | 58.1 | 29.80 | SSE | 3.8 | 4.9 | 85 | 0.02 | - | 52.6 | 0 |
| 12:39 pm | 62.2 | 58.1 | 29.79 | ESE | 2.5 | 2.5 | 86 | 0.07 | 0.02 | 52.6 | 0 |
| 12:44 pm | 61.7 | 57.7 | 29.79 | SE | 3.8 | 6.9 | 87 | 0.09 | 0.02 | 64.2 | 0 |
| 12:49 pm | 61.5 | 57.9 | 29.79 | NE | 1.8 | 3.6 | 88 | 0.09 | 0.02 | 74.5 | 0 |
| 12:54 pm | 61.0 | 57.4 | 29.78 | ENE | 1.6 | 3.1 | 89 | 0.07 | 0.03 | 92.5 | 0 |
| 12:59 pm | 60.6 | 57.4 | 29.77 | ESE | 1.3 | 3.1 | 89 | 0.09 | 0.04 | 114.3 | 0 |
| 1:04 pm | 60.6 | 57.4 | 29.77 | East | 1.6 | 3.1 | 89 | 0.07 | 0.04 | 118.2 | 0 |
| 1:09 pm | 60.8 | 57.6 | 29.76 | NE | 2.0 | 2.5 | 89 | 0.07 | 0.05 | 123.3 | 0 |
| 1:14 pm | 60.6 | 57.4 | 29.76 | NE | 2.2 | 2.9 | 89 | 0.05 | 0.05 | 125.9 | 0 |
| 1:19 pm | 60.8 | 57.9 | 29.76 | NE | 1.6 | 3.6 | 90 | 0.05 | 0.05 | 127.1 | 0 |